Home > Weather > Pasadena > Past weeks

Flag for U.S.A. Weather for the Past 2 Weeks in Pasadena, California, U.S.A.

Now
61 °F

Sunny.


Feels Like: 61 °F
Forecast: 52 / 81 °F
Wind: No wind

Location: Bob Hope Airport

Current Time: Feb 7, 2016 at 9:30:27 AM

Latest Report: Feb 7, 2016 at 8:53 AM


Visibility: 10 mi

Pressure: 30.13 "Hg

Humidity: 25%

Dew point: 25 °F

Location of PasadenaLocation

Historic Weather in Pasadena — Graph

°F

Pasadena Temperature Yesterday

Maximum temperature yesterday: 77 °F (at 2:53 PM)
Minimum temperature yesterday: 44 °F (at 6:53 AM)
Average temperature yesterday: 60 °F

High & Low Weather Summary for the Past Weeks

 TemperatureHumidityPressure
High77 °F (Feb 6, 2:53 PM)94% (Jan 31, 7:59 AM)30.34 "Hg (Jan 31, 7:59 AM)
Low39 °F (Feb 2, 5:53 AM)10% (Jan 28, 1:53 PM)29.54 "Hg (Jan 31, 1:53 PM)
Average55 °F45%30.10 "Hg
* Reported Jan 23 6:53 AM — Feb 7 6:53 AM, Pasadena, Weather by CustomWeather, © 2016

Note: Actual official high and low records may vary slightly from our data, if they occured in-between our weather recording intervals... More about our weather records

Advertising

Pasadena Weather History for the Previous 24 Hours

 ConditionsComfort  
Time TempWeatherWind HumidityBarometerVisibility
6:53 AM
Sun, Feb 7
46 °FSunny.No wind48%30.11 "Hg10 mi
5:53 AM46 °FClear.No wind48%30.10 "Hg10 mi
4:53 AM48 °FClear.No wind43%30.10 "Hg10 mi
3:53 AM49 °FClear.No wind41%30.11 "Hg10 mi
2:53 AM49 °FClear.No wind41%30.13 "Hg10 mi
1:53 AM50 °FClear.No wind39%30.14 "Hg10 mi
12:53 AM51 °FClear.3 mph41%30.14 "Hg10 mi
11:53 PM
Sat, Feb 6
54 °FClear.No wind37%30.14 "Hg10 mi
10:53 PM54 °FClear.No wind34%30.14 "Hg10 mi
9:53 PM58 °FClear.No wind28%30.14 "Hg10 mi
8:53 PM58 °FClear.No wind35%30.15 "Hg10 mi
7:53 PM60 °FClear.No wind35%30.15 "Hg10 mi
6:53 PM63 °FClear.No wind29%30.14 "Hg10 mi
5:53 PM68 °FClear.No wind19%30.12 "Hg10 mi
4:53 PM71 °FSunny.5 mph18%30.11 "Hg10 mi
3:53 PM75 °FSunny.9 mph15%30.10 "Hg10 mi
2:53 PM77 °FSunny.6 mph13%30.11 "Hg10 mi
1:53 PM76 °FSunny.3 mph14%30.13 "Hg10 mi
12:53 PM75 °FSunny.No wind14%30.16 "Hg10 mi
11:53 AM72 °FSunny.No wind17%30.21 "Hg10 mi
10:53 AM68 °FSunny.No wind18%30.24 "Hg10 mi
9:53 AM62 °FSunny.No wind22%30.26 "Hg10 mi
Weather by CustomWeather, © 2016

See weather overviewHow to use our weather pages